User: anonymous   Login
Location: Unspecified
(0.0000°N, 0.0000°E)
Time: 19:55:39
(UTC+00:00)
Language:

Mayak - Orbit

View from above orbital plane
View from above orbital plane
View from above satellite
View from above satellite

Ground track
Ground track

The orbit data is extracted from the following two-line orbital elements,

1 42830U 17042F   19258.26366245  .00000447  00000-0  49492-4 0  9997
2 42830  97.5562 148.2164 0015496 117.0500 243.2303 14.91877198118178
Epoch (UTC): 15 September 2019 06:19:40
Eccentricity: 0.0015496
inclination: 97.5562°
perigee height: 581 km
apogee height: 603 km
right ascension of ascending node: 148.2164°
argument of perigee: 117.0500°
revolutions per day: 14.91877198
mean anomaly at epoch: 243.2303°
orbit number at epoch: 11817

The dashed part of the orbit path shows where the satellite is in the earth's shadow,  

DLR